Change the Weather History Date:

Wednesday, June 26, 2013

  Actual Average Record
Temperature  
Mean Temperature 81 °F -  
Max Temperature 91 °F - 91 °F (2011)
Min Temperature 71 °F - 71 °F (2013)
Degree Days  
Heating Degree Days 0    
Cooling Degree Days 16    
Growing Degree Days 31 (Base 50)    
Moisture  
Dew Point 71 °F    
Average Humidity 75    
Maximum Humidity 93    
Minimum Humidity 56    
Precipitation  
Precipitation T in - 0.12 in (2014)
Month to date precipitation  
Year to date precipitation  
Sea Level Pressure  
Sea Level Pressure 30.07 in    
Wind  
Wind Speed 2 mph (SE)    
Max Wind Speed 14 mph    
Max Gust Speed 20 mph    
Visibility 9 miles    
Events      
T = Trace of Precipitation, MM = Missing Value Source: NWS Daily Summary

Daily Weather History Graph

Daily Weather History Graph

Search for Another Location

Airport or City:

Trip Planner

Search our weather history database for the weather conditions in past years. The results will help you decide how hot, cold, wet, or windy it might be!

Date:

Astronomy

Jun. 26, 2013 Rise Set
Actual Time 6:43 AM EDT 8:49 PM EDT
Civil Twilight 6:15 AM EDT 9:16 PM EDT
Nautical Twilight 5:42 AM EDT 9:50 PM EDT
Astronomical Twilight 5:06 AM EDT 10:26 PM EDT
Moon 11:30 PM EDT (6/26) 10:18 AM EDT (6/26)
Length of Visible Light 15h 01m
Length of Day
14h 05m
Waning Gibbous, 85% of the Moon is Illuminated
Jun 26
Waning Gibbous
Jun 30
Last Quarter
Jul 8
New
Jul 15
First Quarter
Jul 22
Full

Hourly Weather History & Observations

Time (EDT) Temp. Heat Index Dew Point Humidity Pressure Visibility Wind Dir Wind Speed Gust Speed Precip Events Conditions
12:53 AM 73.9 °F - 71.1 °F 91% 30.10 in 9.0 mi Calm Calm - N/A   Clear
1:53 AM 73.9 °F - 70.0 °F 87% 30.08 in 7.0 mi Calm Calm - N/A   Clear
2:53 AM 73.9 °F - 71.1 °F 91% 30.06 in 7.0 mi Calm Calm - N/A   Clear
3:53 AM 73.0 °F - 69.1 °F 87% 30.04 in 6.0 mi Calm Calm - N/A   Clear
4:53 AM 72.0 °F - 69.1 °F 91% 30.04 in 7.0 mi Calm Calm - N/A   Clear
5:53 AM 72.0 °F - 69.1 °F 91% 30.07 in 5.0 mi Calm Calm - N/A   Scattered Clouds
6:04 AM 73.4 °F - 69.8 °F 88% 30.03 in 5.0 mi NE 3.5 mph - N/A   Mostly Cloudy
6:26 AM 73.4 °F - 69.8 °F 88% 30.04 in 7.0 mi NE 3.5 mph - N/A   Mostly Cloudy
6:35 AM 73.4 °F - 69.8 °F 88% 30.04 in 7.0 mi Calm Calm - N/A   Partly Cloudy
6:53 AM 73.0 °F - 70.0 °F 90% 30.08 in 5.0 mi NE 3.5 mph - N/A   Clear
7:53 AM 75.0 °F - 72.0 °F 90% 30.10 in 6.0 mi NE 4.6 mph - N/A   Clear
8:53 AM 80.1 °F 84.2 °F 73.0 °F 79% 30.12 in 10.0 mi ENE 3.5 mph - N/A   Clear
9:53 AM 84.0 °F 90.2 °F 73.0 °F 69% 30.12 in 10.0 mi ENE 3.5 mph - N/A   Partly Cloudy
10:53 AM 84.9 °F 90.7 °F 72.0 °F 65% 30.12 in 10.0 mi Calm Calm - N/A   Scattered Clouds
11:53 AM 88.0 °F 93.8 °F 71.1 °F 57% 30.11 in 10.0 mi Variable 3.5 mph - N/A   Scattered Clouds
12:53 PM 82.9 °F 89.4 °F 73.9 °F 74% 30.11 in 10.0 mi Calm Calm - N/A   Mostly Cloudy
1:53 PM 88.0 °F 94.7 °F 72.0 °F 59% 30.09 in 10.0 mi Variable 3.5 mph - N/A   Clear
2:53 PM 90.0 °F 97.9 °F 73.0 °F 57% 30.07 in 10.0 mi South 9.2 mph - N/A   Scattered Clouds
3:53 PM 90.0 °F 96.4 °F 71.1 °F 54% 30.05 in 10.0 mi South 8.1 mph 16.1 mph N/A   Partly Cloudy
4:53 PM 90.0 °F 96.4 °F 71.1 °F 54% 30.03 in 10.0 mi South 11.5 mph - N/A   Scattered Clouds
5:53 PM 88.0 °F 93.8 °F 71.1 °F 57% 30.02 in 10.0 mi SSW 12.7 mph - N/A   Scattered Clouds
6:53 PM 87.1 °F 92.8 °F 71.1 °F 59% 30.03 in 10.0 mi SSW 6.9 mph - N/A   Clear
7:53 PM 84.9 °F 91.4 °F 73.0 °F 67% 30.03 in 10.0 mi SW 9.2 mph - N/A   Clear
8:53 PM 82.0 °F 87.4 °F 73.0 °F 74% 30.03 in 10.0 mi South 3.5 mph - N/A   Clear
9:53 PM 80.1 °F 84.2 °F 73.0 °F 79% 30.04 in 10.0 mi South 3.5 mph - N/A   Clear
10:53 PM 80.1 °F 84.2 °F 73.0 °F 79% 30.06 in 10.0 mi Calm Calm - N/A   Clear
11:53 PM 79.0 °F - 73.0 °F 82% 30.06 in 10.0 mi Calm Calm - N/A   Clear